EN

Hourly Weather Rostock

Today, 2 March, Tuesday

Time Temperature Precipitation Wind Pressure Humidity
00:00 +2°C° 0 mm 2 mps 775 mmHg 89%
01:00 +1°C° 0 mm 3 mps 775 mmHg 90%
02:00 +2°C° 0 mm 2 mps 774 mmHg 91%
03:00 +2°C° 0 mm 2 mps 774 mmHg 92%
04:00 +2°C° 0 mm 2 mps 774 mmHg 93%
05:00 +2°C° 0 mm 2 mps 774 mmHg 93%
06:00 +2°C° 0 mm 2 mps 774 mmHg 92%
07:00 +1°C° 0 mm 2 mps 774 mmHg 91%
08:00 +3°C° 0 mm 2 mps 774 mmHg 85%
09:00 +4°C° 0 mm 2 mps 775 mmHg 78%
10:00 +7°C° 0 mm 1 mps 775 mmHg 72%
11:00 +8°C° 0 mm 1 mps 775 mmHg 67%
12:00 +9°C° 0 mm 1 mps 775 mmHg 61%
13:00 +10°C° 0 mm 1 mps 775 mmHg 56%
14:00 +10°C° 0 mm 1 mps 774 mmHg 57%
15:00 +10°C° 0 mm 1 mps 774 mmHg 57%
16:00 +9°C° 0 mm 0 mps 773 mmHg 58%
17:00 +9°C° 0 mm 1 mps 773 mmHg 63%
18:00 +7°C° 0 mm 1 mps 773 mmHg 68%
19:00 +6°C° 0 mm 1 mps 773 mmHg 73%
20:00 +5°C° 0 mm 1 mps 773 mmHg 75%
21:00 +5°C° 0 mm 1 mps 773 mmHg 77%
22:00 +5°C° 0 mm 1 mps 773 mmHg 78%
23:00 +5°C° 0 mm 1 mps 773 mmHg 79%

Tomorrow, 3 March, Wednesday

Time Temperature Precipitation Wind Pressure Humidity
00:00 +3°C° 0 mm 2 mps 773 mmHg 81%
01:00 +3°C° 0 mm 2 mps 773 mmHg 82%
02:00 +3°C° 0 mm 2 mps 772 mmHg 83%
03:00 +3°C° 0 mm 2 mps 771 mmHg 83%
04:00 +3°C° 0 mm 2 mps 771 mmHg 84%
05:00 +2°C° 0 mm 2 mps 771 mmHg 85%
06:00 +2°C° 0 mm 2 mps 770 mmHg 87%
07:00 +1°C° 0 mm 3 mps 770 mmHg 88%
08:00 +2°C° 0 mm 3 mps 770 mmHg 84%
09:00 +4°C° 0 mm 3 mps 769 mmHg 81%
10:00 +7°C° 0 mm 3 mps 769 mmHg 77%
11:00 +8°C° 0 mm 3 mps 768 mmHg 74%
12:00 +10°C° 0 mm 4 mps 768 mmHg 71%
13:00 +11°C° 0 mm 4 mps 768 mmHg 68%
14:00 +11°C° 0 mm 4 mps 767 mmHg 69%
15:00 +12°C° 0 mm 4 mps 766 mmHg 69%
16:00 +12°C° 0 mm 4 mps 765 mmHg 70%
17:00 +10°C° 0 mm 4 mps 765 mmHg 76%
18:00 +8°C° 0 mm 4 mps 765 mmHg 82%
19:00 +6°C° 0 mm 4 mps 764 mmHg 89%
20:00 +6°C° 0 mm 5 mps 764 mmHg 90%
21:00 +5°C° 0 mm 5 mps 764 mmHg 91%
22:00 +3°C° 0 mm 6 mps 763 mmHg 93%
23:00 +2°C° 0 mm 6 mps 763 mmHg 93%

Day after tomorrow, 4 March, Thursday

Time Temperature Precipitation Wind Pressure Humidity
00:00 +1°C° 0 mm 6 mps 763 mmHg 93%
01:00 +1°C° 0 mm 6 mps 763 mmHg 93%
02:00 -1°C° 0 mm 7 mps 762 mmHg 92%
03:00 -1°C° 0 mm 7 mps 761 mmHg 90%
04:00 -1°C° 0 mm 7 mps 761 mmHg 89%
05:00 -1°C° 0 mm 7 mps 761 mmHg 89%
06:00 -1°C° 0 mm 7 mps 761 mmHg 88%
07:00 0°C° 0 mm 7 mps 760 mmHg 88%
08:00 0°C° 0 mm 7 mps 760 mmHg 87%
09:00 +2°C° 0 mm 6 mps 761 mmHg 85%
10:00 +2°C° 0 mm 6 mps 761 mmHg 83%
11:00 +2°C° 0 mm 6 mps 761 mmHg 82%
12:00 +2°C° 0 mm 5 mps 761 mmHg 81%
13:00 +2°C° 0 mm 5 mps 761 mmHg 80%
14:00 +1°C° 0 mm 5 mps 761 mmHg 80%
15:00 +1°C° 0 mm 5 mps 761 mmHg 81%
16:00 +1°C° 0 mm 6 mps 761 mmHg 81%
17:00 0°C° 0 mm 5 mps 762 mmHg 83%
18:00 0°C° 0 mm 4 mps 762 mmHg 86%
19:00 0°C° 0 mm 3 mps 763 mmHg 89%
20:00 -1°C° 0 mm 3 mps 763 mmHg 90%
21:00 -2°C° 0 mm 3 mps 764 mmHg 91%
22:00 -2°C° 0 mm 3 mps 764 mmHg 92%
23:00 -2°C° 0 mm 3 mps 765 mmHg 89%

5 March, Friday

Time Temperature Precipitation Wind Pressure Humidity
00:00 -2°C° 0 mm 3 mps 765 mmHg 86%
01:00 -2°C° 0 mm 3 mps 765 mmHg 82%
02:00 -2°C° 0 mm 3 mps 765 mmHg 80%
03:00 -2°C° 0 mm 3 mps 765 mmHg 78%
04:00 -2°C° 0 mm 3 mps 765 mmHg 76%
05:00 -3°C° 0 mm 4 mps 766 mmHg 76%
06:00 -3°C° 0 mm 4 mps 766 mmHg 76%
07:00 -3°C° 0 mm 4 mps 766 mmHg 76%
08:00 -2°C° 0 mm 4 mps 767 mmHg 68%
09:00 -1°C° 0 mm 5 mps 767 mmHg 60%
10:00 +1°C° 0 mm 5 mps 767 mmHg 52%
11:00 +1°C° 0 mm 5 mps 768 mmHg 49%
12:00 +1°C° 0 mm 5 mps 768 mmHg 46%
13:00 +2°C° 0 mm 5 mps 768 mmHg 43%
14:00 +1°C° 0 mm 5 mps 769 mmHg 45%
15:00 +1°C° 0 mm 5 mps 769 mmHg 47%
16:00 +1°C° 0 mm 5 mps 769 mmHg 50%
17:00 0°C° 0 mm 5 mps 769 mmHg 57%
18:00 -1°C° 0 mm 4 mps 770 mmHg 64%
19:00 -3°C° 0 mm 4 mps 770 mmHg 70%
20:00 -2°C° 0 mm 3 mps 771 mmHg 71%
21:00 -2°C° 0 mm 3 mps 771 mmHg 72%
22:00 -2°C° 0 mm 3 mps 772 mmHg 72%
23:00 -2°C° 0 mm 3 mps 772 mmHg 71%

6 March, Saturday

Time Temperature Precipitation Wind Pressure Humidity
00:00 -2°C° 0 mm 3 mps 772 mmHg 71%
01:00 -3°C° 0 mm 2 mps 772 mmHg 70%
02:00 -4°C° 0 mm 3 mps 772 mmHg 70%
03:00 -4°C° 0 mm 3 mps 772 mmHg 69%
04:00 -4°C° 0 mm 4 mps 772 mmHg 69%
05:00 -4°C° 0 mm 4 mps 772 mmHg 66%
06:00 -5°C° 0 mm 5 mps 772 mmHg 63%
07:00 -5°C° 0 mm 5 mps 772 mmHg 60%
08:00 -4°C° 0 mm 6 mps 772 mmHg 54%
09:00 -2°C° 0 mm 7 mps 772 mmHg 48%
10:00 0°C° 0 mm 8 mps 771 mmHg 42%
11:00 0°C° 0 mm 8 mps 771 mmHg 51%
12:00 +1°C° 0 mm 8 mps 771 mmHg 60%
13:00 +1°C° 0 mm 8 mps 771 mmHg 69%
14:00 +1°C° 0 mm 8 mps 770 mmHg 70%
15:00 +1°C° 0 mm 8 mps 770 mmHg 72%
16:00 +1°C° 0 mm 8 mps 769 mmHg 73%
17:00 +2°C° 0 mm 7 mps 769 mmHg 75%
18:00 0°C° 0 mm 7 mps 769 mmHg 78%
19:00 0°C° 0 mm 7 mps 768 mmHg 80%
20:00 -1°C° 0 mm 7 mps 768 mmHg 82%
21:00 -2°C° 0 mm 8 mps 768 mmHg 84%
22:00 -2°C° 0 mm 8 mps 768 mmHg 86%
23:00 -2°C° 0 mm 8 mps 767 mmHg 84%

7 March, Sunday

Time Temperature Precipitation Wind Pressure Humidity
00:00 -2°C° 0 mm 8 mps 767 mmHg 82%
01:00 -2°C° 0 mm 8 mps 767 mmHg 80%
02:00 -1°C° 0 mm 8 mps 766 mmHg 78%
03:00 -1°C° 0 mm 8 mps 766 mmHg 77%
04:00 -1°C° 0 mm 8 mps 765 mmHg 75%
05:00 -1°C° 0 mm 9 mps 765 mmHg 76%
06:00 -1°C° 0 mm 9 mps 765 mmHg 76%
07:00 -1°C° 0 mm 9 mps 764 mmHg 76%
08:00 -1°C° 0 mm 9 mps 764 mmHg 75%
09:00 -1°C° 0 mm 9 mps 764 mmHg 74%
10:00 0°C° 0 mm 9 mps 764 mmHg 73%
11:00 0°C° 0 mm 9 mps 764 mmHg 73%
12:00 +1°C° 0 mm 8 mps 764 mmHg 73%
13:00 +1°C° 0 mm 8 mps 763 mmHg 73%
14:00 +2°C° 0.2 mm 7 mps 763 mmHg 79%
15:00 +2°C° 0.2 mm 6 mps 763 mmHg 85%
16:00 +1°C° 0.2 mm 5 mps 763 mmHg 90%
17:00 0°C° 0.1 mm 5 mps 764 mmHg 89%
18:00 -1°C° 0.1 mm 4 mps 764 mmHg 88%
19:00 -1°C° 0.1 mm 3 mps 764 mmHg 86%
20:00 -1°C° 0 mm 3 mps 765 mmHg 84%
21:00 -2°C° 0 mm 3 mps 765 mmHg 81%
22:00 -4°C° 0 mm 3 mps 766 mmHg 78%
23:00 -4°C° 0 mm 3 mps 766 mmHg 77%
Show more

We Need Your Consent

Meteoprog and our Service Providers may store and access personal data such as cookies, device identifiers or other similar technologies on your device and process such data to personalise content and ads, as well as provide social media features and to analyse the traffic.

  • Store and/or access information on your device

    Cookies, device identifiers or other information can be stored or accessed on your device for the purposes indicated above.

  • Personalised ads and content, ad and content measurement, audience insights, and products development

    Ads and content can be personalised based on a profile. More data can be added to better personalise ads and content. Ad and content performance can be measured. Insights about the audience who saw the ads and content can be derived. Such data can be used to develop or improve user’s experience, systems and software.

By clicking ‘I Agree’ you will allow the use of indicated cookies, device identifiers, web beacons or other similar technologies. Your settings can be changed in the browser on your device.

For certain purposes, legitimate interests may be relied on, rather than consent. You can read more about this in our Privacy and Cookie Policy.